This is the latest recevied weather packets stored in our database for station/object KQ7A. If no packets are shown the sender has not sent any weather packets the latest 10 day(s).
| Time | Temp. | Humidity | Pressure | Rain* | Wind** | Luminosity | Snow |
|---|---|---|---|---|---|---|---|
| 1777505145 | 19.44° C | 29% | 1017.7 hPa | 0 mm | - | 519 W/m² | - |
| 1777504843 | 20° C | 25% | 1017.8 hPa | 0 mm | - | 505 W/m² | - |
| 1777504539 | 19.44° C | 27% | 1017.8 hPa | 0 mm | - | 542 W/m² | - |
| 1777504235 | 19.44° C | 25% | 1017.8 hPa | 0 mm | - | 546 W/m² | - |
| 1777503931 | 20° C | 28% | 1018.1 hPa | 0 mm | - | 553 W/m² | - |
| 1777503628 | 19.44° C | 30% | 1017.9 hPa | 0 mm | - | 564 W/m² | - |
| 1777503325 | 19.44° C | 30% | 1018.2 hPa | 0 mm | - | 579 W/m² | - |
| 1777503021 | 18.89° C | 28% | 1018.2 hPa | 0 mm | - | 603 W/m² | - |
| 1777502718 | 18.89° C | 28% | 1018.2 hPa | 0 mm | - | 603 W/m² | - |
| 1777502415 | 19.44° C | 33% | 1018.3 hPa | 0 mm | - | 610 W/m² | - |
| 1777502112 | 19.44° C | 27% | 1018.4 hPa | 0 mm | - | 619 W/m² | - |
| 1777501810 | 18.89° C | 28% | 1018.4 hPa | 0 mm | - | 629 W/m² | - |
| 1777501506 | 20° C | 29% | 1018.2 hPa | 0 mm | - | 645 W/m² | - |
| 1777501203 | 19.44° C | 28% | 1018.3 hPa | 0 mm | - | 654 W/m² | - |
| 1777500901 | 18.89° C | 30% | 1018.5 hPa | 0 mm | - | 650 W/m² | - |
| 1777500598 | 19.44° C | 28% | 1018.6 hPa | 0 mm | - | 644 W/m² | - |
| 1777500295 | 18.89° C | 27% | 1018.8 hPa | 0 mm | - | 652 W/m² | - |
| 1777499991 | 19.44° C | 30% | 1018.5 hPa | 0 mm | - | 680 W/m² | - |
| 1777499688 | 18.89° C | 31% | 1018.9 hPa | 0 mm | - | 684 W/m² | - |
| 1777499384 | 18.89° C | 31% | 1018.9 hPa | 0 mm | - | 690 W/m² | - |
| 1777499084 | 18.33° C | 35% | 1018.6 hPa | 0 mm | - | 698 W/m² | - |
| 1777498779 | 18.33° C | 33% | 1018.8 hPa | 0 mm | - | 698 W/m² | - |
| 1777498476 | 18.33° C | 29% | 1019 hPa | 0 mm | - | 700 W/m² | - |
| 1777498172 | 18.89° C | 29% | 1018.8 hPa | 0 mm | - | 720 W/m² | - |
| 1777497870 | 18.33° C | 35% | 1018.9 hPa | 0 mm | - | 719 W/m² | - |
* Rain latest hour (hover to see other rain measurements)
** Current wind speed in m/s (hover to see current wind gust speed)